Flag for U.S.A. Weather past 2 weeks in Alpena, Michigan, U.S.A.

Now
64 °F

Thunderstorms. Fog.


Feels Like: 64 °F
Forecast: 62 / 76 °F
Wind: 8 mph from Southeast

Location: Alpena County Regional Airport

Current Time: Aug 2, 2015 at 2:35:20 PM

Latest Report: Aug 2, 2015 at 1:54 PM


Visibility: 4 mi

Pressure: 29.67 "Hg

Humidity: 90%

Dew point: 61 °F

Location of AlpenaLocation

Historic Weather in Alpena — Graph

°F

Alpena temperature yesterday

Maximum temperature yesterday: 80 °F (at 2:54 PM)
Minimum temperature yesterday: 58 °F (at 2:54 AM)
Average temperature yesterday: 67 °F

Past Weeks' High & Low Weather Summary

 TemperatureHumidityPressure
High92 °F (Jul 28, 1:54 PM)96% (Jul 26, 5:56 AM)30.04 "Hg (Jul 26, 5:56 AM)
Low48 °F (Jul 23, 4:54 AM)26% (Jul 29, 6:54 PM)29.59 "Hg (Jul 20, 3:54 PM)
Average72 °F64%29.86 "Hg
* Reported Jul 18 12:54 PM — Aug 2 12:54 PM, Alpena, Weather by CustomWeather, © 2015

Note: Actual official high and low records may vary slightly from our data, if they occured in-between our weather recording intervals... More about our weather records

Advertising

Alpena weather history for previous 24 hours

 ConditionsComfort  
Time TempWeatherWind HumidityBarometerVisibility
12:54 PM
Sun, Aug 2
67 °FPartly sunny.5 mph81%29.68 "Hg10 mi
11:54 AM63 °FThundershowers. Cloudy.9 mph87%29.73 "Hg7 mi
10:54 AM77 °FSunny.9 mph56%29.67 "Hg10 mi
9:54 AM74 °FPassing clouds.9 mph57%29.70 "Hg10 mi
8:54 AM71 °FSunny.8 mph61%29.70 "Hg10 mi
7:54 AM66 °FSunny.8 mph68%29.74 "Hg10 mi
6:54 AM61 °FClear.6 mph72%29.76 "Hg10 mi
5:54 AM61 °FClear.5 mph70%29.76 "Hg10 mi
4:54 AM60 °FClear.6 mph72%29.77 "Hg10 mi
3:54 AM60 °FClear.6 mph75%29.78 "Hg10 mi
2:54 AM60 °FClear.5 mph75%29.79 "Hg10 mi
1:54 AM60 °FClear.3 mph75%29.80 "Hg10 mi
12:54 AM61 °FClear.3 mph78%29.81 "Hg10 mi
11:54 PM
Sat, Aug 1
58 °FClear.3 mph90%29.81 "Hg10 mi
10:54 PM59 °FClear.3 mph87%29.82 "Hg10 mi
9:54 PM62 °FSunny.No wind80%29.83 "Hg10 mi
8:54 PM70 °FSunny.No wind61%29.82 "Hg10 mi
7:54 PM74 °FSunny.5 mph56%29.81 "Hg10 mi
6:54 PM73 °FPartly sunny.3 mph59%29.82 "Hg10 mi
4:54 PM76 °FPassing clouds.8 mph52%29.82 "Hg10 mi
4:03 PM73 °FThundershowers. Cloudy.12 mph59%29.83 "Hg10 mi
3:54 PM76 °FMostly cloudy.9 mph56%29.83 "Hg10 mi
2:54 PM80 °FPassing clouds.7 mph38%29.82 "Hg10 mi
Weather by CustomWeather, © 2015

See weather overviewHow to use our weather pages